« Back
NWS Peachtree City, Ga » Text Product » GA Regional Weather Roundup


Printer-friendly Version
Current Version              Previous Versions:   1  2  3  4  5  6  7  8  9  

Regional Weather Roundup

799
ASUS42 KFFC 181103
RWRGA
WEATHER ROUNDUP FOR GEORGIA
NATIONAL WEATHER SERVICE PEACHTREE CITY GA
700 AM EDT THU SEP 18 2014

NOTE: "FAIR" INDICATES FEW OR NO CLOUDS BELOW 12,000 FEET WITH NO
SIGNIFICANT WEATHER AND/OR OBSTRUCTIONS TO VISIBILITY.

* = USE WITH CAUTION. THE STATIONS MARKED WITH AN ASTERISK MAY NOT
REPORT WEATHER SUCH AS PRECIPITATION, FOG, OR THUNDER AND ARE NOT
QUALITY CONTROLLED BY NWS.

THE REMARK "TC" DENOTES TEMPERATURE READING IN DEGREES CELSIUS.

GAZ001>058-181200-
NORTH GEORGIA

CITY           SKY/WX    TMP DP  RH WIND       PRES   REMARKS
ATLANTA        MOCLDY    63  59  87 N3        29.96R
ATHENS         CLOUDY    68  65  90 E5        29.96R
CHAMBLEE       CLOUDY    65  62  90 CALM      29.97R FOG
PEACHTREE CITY PTCLDY    58  57  97 CALM      29.97R FOG
ROME           PTCLDY    59  57  93 CALM      29.98R
WEST ATLANTA   PTCLDY    59  57  93 CALM      29.97R
GAINESVILLE    CLOUDY    68  64  87 CALM      29.99S
CARTERSVILLE   CLEAR     59  57  93 CALM      29.99R


CITY           SKY/WX    TMP DP  RH WIND       PRES   REMARKS
DALTON*        CLOUDY    59  59 100 CALM      29.98S
LAWRENCEVILLE* CLOUDY    66  61  82 E6        29.96  FOG
MARIETTA       CLOUDY    64  63  99 CALM      29.97S FOG
KENNESAW*      MOCLDY    61  57  88 CALM      29.98
$$

GAZ059>098-102>109-181200-
CENTRAL GEORGIA

CITY           SKY/WX    TMP DP  RH WIND       PRES   REMARKS
AUGUSTA-BUSH   CLOUDY    68  67  96 N3        29.92R
AUGUSTA-DANIEL CLOUDY    69  67  93 N5        29.94S
COLUMBUS       CLEAR     64  59  83 CALM      29.93R
MACON          CLOUDY    67  67 100 N3        29.93S FOG
ROBINS AFB     FOG       67  67  97 N3        29.93R VSB 3/4


CITY           SKY/WX    TMP DP  RH WIND       PRES   REMARKS
LAGRANGE*      CLEAR     61  61  99 CALM      29.96S FOG
SYLVANIA*      CLOUDY    71  70  98 CALM      29.93R
$$

GAZ099>101-110>166-181200-
SOUTH GEORGIA

CITY           SKY/WX    TMP DP  RH WIND       PRES   REMARKS
SAVANNAH       PTCLDY    70  67  90 CALM      29.90R
VALDOSTA       CLEAR     69  67  93 CALM      29.91R
ALMA           FOG       65  65 100 CALM      29.90R VSB 3/4
ST SIMONS      CLEAR     73  71  93 CALM      29.90R
FT STEWART     FOG       70  68  94 NE2       29.89R VSB 1
ALBANY         CLEAR     68  66  93 CALM      29.93R
HUNTER AFB     CLEAR     69  69 100 E1        29.88S
MOODY AFB      CLEAR     71  69  93 W3        29.91R
BRUNSWICK        N/A     70  68  94 CALM      29.90R VSB 1/2


CITY           SKY/WX    TMP DP  RH WIND       PRES   REMARKS
BAINBRIDGE*    PTCLDY    72  70  94 CALM      29.91R
MOULTRIE*      CLEAR     70  70 100 CALM      29.92R
VIDALIA*       FOG       70  70 100 E6        29.91S VSB 1/4
WAYCROSS*      CLEAR     71  71  99 CALM      29.90S
DOUGLAS*       CLEAR     70  68  94 CALM      29.92R FOG
$$



USA.gov is the U.S. government's official web portal to all federal, state and local government web resources and services.